weather.gov     
National Weather Service

Terminal Aerodrome Forecast
NWS Homepage
This page is being discontinued on March 12, 2014.
The same data is available at this site. Please update your bookmarks.
Thank you, and we apologize for the inconvenience.
Please send an email to SR-SRH.Webmaster@noaa.gov with any concerns.


Current Version
Previous Version:    01  02  03  04  05  06  07  08  09  10  11  12  13  14  
[Printable]
358
FTUS41 KBOX 212320
TAFBDL
TAF
KBDL 212320Z 2200/2306 30010KT P6SM SKC
     FM221500 21006KT P6SM SCT150
     FM222000 21010G21KT P6SM BKN140
     FM230100 20008KT P6SM BKN050=


358
FTUS41 KBOX 212320
TAFBDL
TAF
KBDL 212320Z 2200/2306 30010KT P6SM SKC
     FM221500 21006KT P6SM SCT150
     FM222000 21010G21KT P6SM BKN140
     FM230100 20008KT P6SM BKN050=




U.S. Dept. of Commerce
NOAA National Weather Service
1325 East West Highway
Silver Spring, MD 20910
E-mail: w-nws.webmaster@noaa.gov
Page last modified: May 16, 2007
NATIONAL WEATHER SERVICE: for Safety, for Work, for Fun - FOR LIFE